Mckinley Sea — WDE5024 — position and weather

sailwx.info

Track history (hours):
 
Tides and Currents Weather Stations Pressure Air Temp Water Temp Dewpoint Dewpoint Depression Visibility Wind Speed Wind Dir Waves Ship Positions

Mckinley Sea

Owner: Kirby Offshore Marine, LLC, Staten Island, NY. More information available from US FCC via Universal Licensing System and Coast Guard Vessel Documentation Center.

Last reported at 2014-Oct-20 10:33 UTC. Time now 2014-Oct-20 11:14 UTC.
Position N 41°33' W 071°20'.

Length 46 m; draft 7 m.

Type: Towing. MMSI: 367360980.

Date/timePositionNaut miles runAvg speedWind from/ knotsBaromVisibWave heightAir tempDewpointWater temp
2014-Oct-20 10:33N 41°33' W 071°20'7 7.3
2014-Oct-20 09:33N 41°26' W 071°23'8 8.0
2014-Oct-20 08:33N 41°19' W 071°28'7 7.4
2014-Oct-20 07:33N 41°17' W 071°37'8 8.1
2014-Oct-20 06:33N 41°16' W 071°48'9 9.0
2014-Oct-20 05:33N 41°14' W 071°60'10 9.7
2014-Oct-20 04:33N 41°13' W 072°13'10 9.9
2014-Oct-20 03:33N 41°09' W 072°25'9 8.9
2014-Oct-20 02:33N 41°07' W 072°36'8 8.2
2014-Oct-20 01:33N 41°05' W 072°47'23 7.5
2014-Oct-19 22:30N 41°01' W 073°17'7 7.4
2014-Oct-19 21:33N 40°60' W 073°26'24 7.5
2014-Oct-19 18:21N 40°48' W 073°53'5 6.3
2014-Oct-19 17:33N 40°45' W 073°58'6 5.8
2014-Oct-19 16:33N 40°40' W 074°03'6 6.1
2014-Oct-19 15:33N 40°39' W 074°10'3 2.6
2014-Oct-19 14:17N 40°36' W 074°12'3 4.6
2014-Oct-19 13:33N 40°39' W 074°10'0 0.2
2014-Oct-19 12:33N 40°39' W 074°10'0 0.0
2014-Oct-19 11:33N 40°39' W 074°10'0 0.0
2014-Oct-19 10:33N 40°39' W 074°10'3 0.9
2014-Oct-19 07:09N 40°36' W 074°12'3 1.1
2014-Oct-19 04:25N 40°34' W 074°14'0 0.0
2014-Oct-19 03:13N 40°34' W 074°14'0 0.0
2014-Oct-19 02:31N 40°34' W 074°14'0 0.0
2014-Oct-19 01:33N 40°34' W 074°14'3 0.1
2014-Oct-17 23:31N 40°31' W 074°15'5 5.1
2014-Oct-17 22:32N 40°30' W 074°09'0 0.0
2014-Oct-17 21:31N 40°30' W 074°09'0 0.0
2014-Oct-17 15:25N 40°30' W 074°09'0 0.0
2014-Oct-17 14:28N 40°30' W 074°09'0 0.0
2014-Oct-17 11:27N 40°30' W 074°09'0 0.0
2014-Oct-17 09:23N 40°30' W 074°09'0 0.0
2014-Oct-17 02:31N 40°30' W 074°09'0 0.0
2014-Oct-17 00:33N 40°30' W 074°09'0 0.0
2014-Oct-16 23:13N 40°30' W 074°09'4 5.3
2014-Oct-16 22:32N 40°29' W 074°04'8 8.5
2014-Oct-16 21:33N 40°37' W 074°03'8 8.0
2014-Oct-16 20:33N 40°44' W 073°58'7 6.1
2014-Oct-16 19:30N 40°48' W 073°51'6 6.7
2014-Oct-16 18:33N 40°52' W 073°45'9 8.6
2014-Oct-16 17:33N 40°56' W 073°35'10 9.5
2014-Oct-16 16:33N 41°01' W 073°24'10 9.5
2014-Oct-16 15:33N 41°02' W 073°11'9 9.2
2014-Oct-16 14:33N 41°03' W 072°59'9 9.1
2014-Oct-16 13:33N 41°05' W 072°47'9 8.9
2014-Oct-16 12:33N 41°07' W 072°36'9 8.6
2014-Oct-16 11:34N 41°10' W 072°25'9 9.1
2014-Oct-16 10:33N 41°13' W 072°13'1010.0
2014-Oct-16 09:33N 41°14' W 072°00'1010.4
2014-Oct-16 08:33N 41°16' W 071°47'1010.1
2014-Oct-16 07:33N 41°18' W 071°33'8 8.1
2014-Oct-16 06:33N 41°23' W 071°25'9 8.7
2014-Oct-16 05:33N 41°31' W 071°21'8 7.9
2014-Oct-16 04:33N 41°39' W 071°19'7 7.3
2014-Oct-16 03:33N 41°46' W 071°23'1 1.2
2014-Oct-16 02:33N 41°47' W 071°22'0 0.0
2014-Oct-16 01:33N 41°47' W 071°22'0 0.0
2014-Oct-16 00:33N 41°47' W 071°22'0 0.0
2014-Oct-15 23:33N 41°47' W 071°22'0 0.0
2014-Oct-15 22:33N 41°47' W 071°22'0 0.0
2014-Oct-15 21:33N 41°47' W 071°22'0 0.0
2014-Oct-15 20:33N 41°47' W 071°22'0 0.0
2014-Oct-15 19:33N 41°47' W 071°22'0 0.0
2014-Oct-15 18:33N 41°47' W 071°22'0 0.0
2014-Oct-15 17:33N 41°47' W 071°22'0 0.0
2014-Oct-15 16:33N 41°47' W 071°22'0 0.0
2014-Oct-15 15:33N 41°47' W 071°22'0 0.0
2014-Oct-15 14:33N 41°47' W 071°22'0 0.0
2014-Oct-15 13:33N 41°47' W 071°22'0 0.0
2014-Oct-15 12:33N 41°47' W 071°22'0 0.0
2014-Oct-15 11:33N 41°47' W 071°22'0 0.0
2014-Oct-15 10:33N 41°47' W 071°22'0 0.0
2014-Oct-15 09:33N 41°47' W 071°22'0 0.0
2014-Oct-15 08:33N 41°47' W 071°22'0 0.1
2014-Oct-15 07:33N 41°47' W 071°22'5 4.9
2014-Oct-15 06:33N 41°42' W 071°20'8 7.4
2014-Oct-15 05:28N 41°34' W 071°19'7 8.0
2014-Oct-15 04:33N 41°28' W 071°22'8 8.1
2014-Oct-15 03:33N 41°20' W 071°27'7 6.9
2014-Oct-15 02:33N 41°18' W 071°35'8 8.3
2014-Oct-15 01:33N 41°16' W 071°46'9 9.2
2014-Oct-15 00:33N 41°14' W 071°58'10 9.9
2014-Oct-14 23:33N 41°13' W 072°11'10 9.8
2014-Oct-14 22:33N 41°10' W 072°24'9 8.9
2014-Oct-14 21:33N 41°07' W 072°35'8 8.2
2014-Oct-14 20:33N 41°05' W 072°45'8 7.7
2014-Oct-14 19:32N 41°04' W 072°56'7 7.6
2014-Oct-14 18:33N 41°02' W 073°05'8 7.5
2014-Oct-14 17:33N 41°01' W 073°15'11 7.5
2014-Oct-14 16:07N 40°59' W 073°29'13 7.9
2014-Oct-14 14:28N 40°52' W 073°44'7 7.2
2014-Oct-14 13:32N 40°48' W 073°51'6 5.8
2014-Oct-14 12:33N 40°45' W 073°57'5 4.7
2014-Oct-14 11:32N 40°41' W 074°01'4 4.1
2014-Oct-14 10:33N 40°39' W 074°05'0 0.0
2014-Oct-14 09:33N 40°39' W 074°05'0 0.0
2014-Oct-14 08:33N 40°39' W 074°05'0 0.0
2014-Oct-14 07:31N 40°39' W 074°05'0 0.0
2014-Oct-14 06:29N 40°39' W 074°05'0 0.0
2014-Oct-14 05:25N 40°39' W 074°05'0 0.0
2014-Oct-14 04:16N 40°39' W 074°05'0 0.0
2014-Oct-14 03:22N 40°39' W 074°05'0 0.0
2014-Oct-14 01:29N 40°39' W 074°05'0 0.0
2014-Oct-14 00:23N 40°39' W 074°05'0 0.0
2014-Oct-13 23:32N 40°39' W 074°05'0 0.0
2014-Oct-13 22:32N 40°39' W 074°05'0 0.0
2014-Oct-13 21:32N 40°39' W 074°05'4 1.2
2014-Oct-13 18:30N 40°39' W 074°10'0 0.0
2014-Oct-13 17:31N 40°39' W 074°10'0 0.0
2014-Oct-13 16:26N 40°39' W 074°10'4 4.3
2014-Oct-13 15:33N 40°39' W 074°05'0 0.0
2014-Oct-13 14:33N 40°39' W 074°05'0 0.0
2014-Oct-13 13:33N 40°39' W 074°05'0 0.0
2014-Oct-13 12:33N 40°39' W 074°05'0 0.0
2014-Oct-13 11:33N 40°39' W 074°05'0 0.0
2014-Oct-13 10:33N 40°39' W 074°05'0 0.0
2014-Oct-13 09:33N 40°39' W 074°05'0 0.0
2014-Oct-13 08:33N 40°39' W 074°05'0 0.0
2014-Oct-13 07:34N 40°39' W 074°05'0 0.0
2014-Oct-13 06:33N 40°39' W 074°05'0 0.0
2014-Oct-13 05:33N 40°39' W 074°05'0 0.0
2014-Oct-13 04:32N 40°39' W 074°05'0 0.0
2014-Oct-13 03:33N 40°39' W 074°05'0 0.0
2014-Oct-13 02:33N 40°39' W 074°05'0 0.0
2014-Oct-13 01:33N 40°39' W 074°05'0 0.0
2014-Oct-13 00:32N 40°39' W 074°05'0 0.0
2014-Oct-12 23:33N 40°39' W 074°05'0 0.0
2014-Oct-12 22:33N 40°39' W 074°05'0 0.3
2014-Oct-12 21:33N 40°39' W 074°05'2 1.1
2014-Oct-12 19:21N 40°40' W 074°02'0 0.0
2014-Oct-12 18:33N 40°40' W 074°02'0 0.1
2014-Oct-12 16:27N 40°40' W 074°02'0 0.0
2014-Oct-12 15:26N 40°40' W 074°02'0 0.1
2014-Oct-12 14:28N 40°40' W 074°02'0 0.1
2014-Oct-12 13:30N 40°40' W 074°02'0 0.0
2014-Oct-12 12:32N 40°40' W 074°02'0 0.0
2014-Oct-12 11:32N 40°40' W 074°02'0 0.1
2014-Oct-12 10:33N 40°40' W 074°02'0 0.0
2014-Oct-12 09:32N 40°40' W 074°02'0 0.0
2014-Oct-12 08:33N 40°40' W 074°02'0 0.0
2014-Oct-12 07:33N 40°40' W 074°02'0 0.0
2014-Oct-12 06:33N 40°40' W 074°02'0 0.0
2014-Oct-12 05:33N 40°40' W 074°02'0 0.1
2014-Oct-12 04:33N 40°40' W 074°02'0 0.1
2014-Oct-12 03:33N 40°40' W 074°02'0 0.0
2014-Oct-12 02:33N 40°40' W 074°02'0 0.1
2014-Oct-12 01:33N 40°40' W 074°02'0 0.0
2014-Oct-12 00:33N 40°40' W 074°02'0 0.1
2014-Oct-11 23:33N 40°40' W 074°02'0 0.1
2014-Oct-11 22:33N 40°40' W 074°02'0 0.0
2014-Oct-11 21:33N 40°40' W 074°02'0 0.0
2014-Oct-11 20:33N 40°40' W 074°02'0 0.0
2014-Oct-11 19:33N 40°40' W 074°02'0 0.0
2014-Oct-11 18:33N 40°40' W 074°02'0 0.0
2014-Oct-11 17:33N 40°40' W 074°02'0 0.1
2014-Oct-11 16:33N 40°40' W 074°02'0 0.1
2014-Oct-11 15:33N 40°40' W 074°02'0 0.0
2014-Oct-11 14:33N 40°40' W 074°02'1 0.7
2014-Oct-11 13:33N 40°41' W 074°01'7 6.2
2014-Oct-11 12:27N 40°47' W 073°56'23 8.0
2014-Oct-11 09:33N 40°58' W 073°30'9 8.8
2014-Oct-11 08:33N 41°01' W 073°19'9 9.2
2014-Oct-11 07:33N 41°02' W 073°07'10 9.5
2014-Oct-11 06:33N 41°04' W 072°54'10 9.7
2014-Oct-11 05:33N 41°07' W 072°42'1010.2
2014-Oct-11 04:33N 41°09' W 072°29'1111.4
2014-Oct-11 03:33N 41°12' W 072°14'1211.6
2014-Oct-11 02:33N 41°14' W 071°59'1110.7
2014-Oct-11 01:33N 41°16' W 071°45'1010.1
2014-Oct-11 00:33N 41°18' W 071°32'8 8.3
2014-Oct-10 23:33N 41°24' W 071°24'9 8.8
2014-Oct-10 22:33N 41°32' W 071°20'9 9.2
2014-Oct-10 21:33N 41°41' W 071°19'6 6.3
2014-Oct-10 20:33N 41°47' W 071°22'0 0.0
2014-Oct-10 19:33N 41°47' W 071°22'0 0.0
2014-Oct-10 18:33N 41°47' W 071°22'0 0.0
2014-Oct-10 17:33N 41°47' W 071°22'0 0.0
2014-Oct-10 16:32N 41°47' W 071°22'0 0.0
2014-Oct-10 15:33N 41°47' W 071°22'0 0.0
2014-Oct-10 14:33N 41°47' W 071°22'0 0.0
2014-Oct-10 13:24N 41°47' W 071°22'0 0.0
2014-Oct-10 12:33N 41°47' W 071°22'0 0.0
2014-Oct-10 11:33N 41°47' W 071°22'0 0.0
2014-Oct-10 10:33N 41°47' W 071°22'  
Track history (hours):
 
Tides and Currents Weather Stations Pressure Air Temp Water Temp Dewpoint Dewpoint Depression Visibility Wind Speed Wind Dir Waves Ship Positions

Mckinley Sea

Owner: Kirby Offshore Marine, LLC, Staten Island, NY. More information available from US FCC via Universal Licensing System and Coast Guard Vessel Documentation Center.

Last reported at 2014-Oct-20 10:33 UTC. Time now 2014-Oct-20 11:14 UTC.
Position N 41°33' W 071°20'.

Length 46 m; draft 7 m.

Type: Towing. MMSI: 367360980.

Date/timePositionNaut miles runAvg speedWind from/ knotsBaromVisibWave heightAir tempDewpointWater temp
2014-Oct-20 10:33N 41°33' W 071°20'7 7.3
2014-Oct-20 09:33N 41°26' W 071°23'8 8.0
2014-Oct-20 08:33N 41°19' W 071°28'7 7.4
2014-Oct-20 07:33N 41°17' W 071°37'8 8.1
2014-Oct-20 06:33N 41°16' W 071°48'9 9.0
2014-Oct-20 05:33N 41°14' W 071°60'10 9.7
2014-Oct-20 04:33N 41°13' W 072°13'10 9.9
2014-Oct-20 03:33N 41°09' W 072°25'9 8.9
2014-Oct-20 02:33N 41°07' W 072°36'8 8.2
2014-Oct-20 01:33N 41°05' W 072°47'23 7.5
2014-Oct-19 22:30N 41°01' W 073°17'7 7.4
2014-Oct-19 21:33N 40°60' W 073°26'24 7.5
2014-Oct-19 18:21N 40°48' W 073°53'5 6.3
2014-Oct-19 17:33N 40°45' W 073°58'6 5.8
2014-Oct-19 16:33N 40°40' W 074°03'6 6.1
2014-Oct-19 15:33N 40°39' W 074°10'3 2.6
2014-Oct-19 14:17N 40°36' W 074°12'3 4.6
2014-Oct-19 13:33N 40°39' W 074°10'0 0.2
2014-Oct-19 12:33N 40°39' W 074°10'0 0.0
2014-Oct-19 11:33N 40°39' W 074°10'0 0.0
2014-Oct-19 10:33N 40°39' W 074°10'3 0.9
2014-Oct-19 07:09N 40°36' W 074°12'3 1.1
2014-Oct-19 04:25N 40°34' W 074°14'0 0.0
2014-Oct-19 03:13N 40°34' W 074°14'0 0.0
2014-Oct-19 02:31N 40°34' W 074°14'0 0.0
2014-Oct-19 01:33N 40°34' W 074°14'3 0.1
2014-Oct-17 23:31N 40°31' W 074°15'5 5.1
2014-Oct-17 22:32N 40°30' W 074°09'0 0.0
2014-Oct-17 21:31N 40°30' W 074°09'0 0.0
2014-Oct-17 15:25N 40°30' W 074°09'0 0.0
2014-Oct-17 14:28N 40°30' W 074°09'0 0.0
2014-Oct-17 11:27N 40°30' W 074°09'0 0.0
2014-Oct-17 09:23N 40°30' W 074°09'0 0.0
2014-Oct-17 02:31N 40°30' W 074°09'0 0.0
2014-Oct-17 00:33N 40°30' W 074°09'0 0.0
2014-Oct-16 23:13N 40°30' W 074°09'4 5.3
2014-Oct-16 22:32N 40°29' W 074°04'8 8.5
2014-Oct-16 21:33N 40°37' W 074°03'8 8.0
2014-Oct-16 20:33N 40°44' W 073°58'7 6.1
2014-Oct-16 19:30N 40°48' W 073°51'6 6.7
2014-Oct-16 18:33N 40°52' W 073°45'9 8.6
2014-Oct-16 17:33N 40°56' W 073°35'10 9.5
2014-Oct-16 16:33N 41°01' W 073°24'10 9.5
2014-Oct-16 15:33N 41°02' W 073°11'9 9.2
2014-Oct-16 14:33N 41°03' W 072°59'9 9.1
2014-Oct-16 13:33N 41°05' W 072°47'9 8.9
2014-Oct-16 12:33N 41°07' W 072°36'9 8.6
2014-Oct-16 11:34N 41°10' W 072°25'9 9.1
2014-Oct-16 10:33N 41°13' W 072°13'1010.0
2014-Oct-16 09:33N 41°14' W 072°00'1010.4
2014-Oct-16 08:33N 41°16' W 071°47'1010.1
2014-Oct-16 07:33N 41°18' W 071°33'8 8.1
2014-Oct-16 06:33N 41°23' W 071°25'9 8.7
2014-Oct-16 05:33N 41°31' W 071°21'8 7.9
2014-Oct-16 04:33N 41°39' W 071°19'7 7.3
2014-Oct-16 03:33N 41°46' W 071°23'1 1.2
2014-Oct-16 02:33N 41°47' W 071°22'0 0.0
2014-Oct-16 01:33N 41°47' W 071°22'0 0.0
2014-Oct-16 00:33N 41°47' W 071°22'0 0.0
2014-Oct-15 23:33N 41°47' W 071°22'0 0.0
2014-Oct-15 22:33N 41°47' W 071°22'0 0.0
2014-Oct-15 21:33N 41°47' W 071°22'0 0.0
2014-Oct-15 20:33N 41°47' W 071°22'0 0.0
2014-Oct-15 19:33N 41°47' W 071°22'0 0.0
2014-Oct-15 18:33N 41°47' W 071°22'0 0.0
2014-Oct-15 17:33N 41°47' W 071°22'0 0.0
2014-Oct-15 16:33N 41°47' W 071°22'0 0.0
2014-Oct-15 15:33N 41°47' W 071°22'0 0.0
2014-Oct-15 14:33N 41°47' W 071°22'0 0.0
2014-Oct-15 13:33N 41°47' W 071°22'0 0.0
2014-Oct-15 12:33N 41°47' W 071°22'0 0.0
2014-Oct-15 11:33N 41°47' W 071°22'0 0.0
2014-Oct-15 10:33N 41°47' W 071°22'0 0.0
2014-Oct-15 09:33N 41°47' W 071°22'0 0.0
2014-Oct-15 08:33N 41°47' W 071°22'0 0.1
2014-Oct-15 07:33N 41°47' W 071°22'5 4.9
2014-Oct-15 06:33N 41°42' W 071°20'8 7.4
2014-Oct-15 05:28N 41°34' W 071°19'7 8.0
2014-Oct-15 04:33N 41°28' W 071°22'8 8.1
2014-Oct-15 03:33N 41°20' W 071°27'7 6.9
2014-Oct-15 02:33N 41°18' W 071°35'8 8.3
2014-Oct-15 01:33N 41°16' W 071°46'9 9.2
2014-Oct-15 00:33N 41°14' W 071°58'10 9.9
2014-Oct-14 23:33N 41°13' W 072°11'10 9.8
2014-Oct-14 22:33N 41°10' W 072°24'9 8.9
2014-Oct-14 21:33N 41°07' W 072°35'8 8.2
2014-Oct-14 20:33N 41°05' W 072°45'8 7.7
2014-Oct-14 19:32N 41°04' W 072°56'7 7.6
2014-Oct-14 18:33N 41°02' W 073°05'8 7.5
2014-Oct-14 17:33N 41°01' W 073°15'11 7.5
2014-Oct-14 16:07N 40°59' W 073°29'13 7.9
2014-Oct-14 14:28N 40°52' W 073°44'7 7.2
2014-Oct-14 13:32N 40°48' W 073°51'6 5.8
2014-Oct-14 12:33N 40°45' W 073°57'5 4.7
2014-Oct-14 11:32N 40°41' W 074°01'4 4.1
2014-Oct-14 10:33N 40°39' W 074°05'0 0.0
2014-Oct-14 09:33N 40°39' W 074°05'0 0.0
2014-Oct-14 08:33N 40°39' W 074°05'0 0.0
2014-Oct-14 07:31N 40°39' W 074°05'0 0.0
2014-Oct-14 06:29N 40°39' W 074°05'0 0.0
2014-Oct-14 05:25N 40°39' W 074°05'0 0.0
2014-Oct-14 04:16N 40°39' W 074°05'0 0.0
2014-Oct-14 03:22N 40°39' W 074°05'0 0.0
2014-Oct-14 01:29N 40°39' W 074°05'0 0.0
2014-Oct-14 00:23N 40°39' W 074°05'0 0.0
2014-Oct-13 23:32N 40°39' W 074°05'0 0.0
2014-Oct-13 22:32N 40°39' W 074°05'0 0.0
2014-Oct-13 21:32N 40°39' W 074°05'4 1.2
2014-Oct-13 18:30N 40°39' W 074°10'0 0.0
2014-Oct-13 17:31N 40°39' W 074°10'0 0.0
2014-Oct-13 16:26N 40°39' W 074°10'4 4.3
2014-Oct-13 15:33N 40°39' W 074°05'0 0.0
2014-Oct-13 14:33N 40°39' W 074°05'0 0.0
2014-Oct-13 13:33N 40°39' W 074°05'0 0.0
2014-Oct-13 12:33N 40°39' W 074°05'0 0.0
2014-Oct-13 11:33N 40°39' W 074°05'0 0.0
2014-Oct-13 10:33N 40°39' W 074°05'0 0.0
2014-Oct-13 09:33N 40°39' W 074°05'0 0.0
2014-Oct-13 08:33N 40°39' W 074°05'0 0.0
2014-Oct-13 07:34N 40°39' W 074°05'0 0.0
2014-Oct-13 06:33N 40°39' W 074°05'0 0.0
2014-Oct-13 05:33N 40°39' W 074°05'0 0.0
2014-Oct-13 04:32N 40°39' W 074°05'0 0.0
2014-Oct-13 03:33N 40°39' W 074°05'0 0.0
2014-Oct-13 02:33N 40°39' W 074°05'0 0.0
2014-Oct-13 01:33N 40°39' W 074°05'0 0.0
2014-Oct-13 00:32N 40°39' W 074°05'0 0.0
2014-Oct-12 23:33N 40°39' W 074°05'0 0.0
2014-Oct-12 22:33N 40°39' W 074°05'0 0.3
2014-Oct-12 21:33N 40°39' W 074°05'2 1.1
2014-Oct-12 19:21N 40°40' W 074°02'0 0.0
2014-Oct-12 18:33N 40°40' W 074°02'0 0.1
2014-Oct-12 16:27N 40°40' W 074°02'0 0.0
2014-Oct-12 15:26N 40°40' W 074°02'0 0.1
2014-Oct-12 14:28N 40°40' W 074°02'0 0.1
2014-Oct-12 13:30N 40°40' W 074°02'0 0.0
2014-Oct-12 12:32N 40°40' W 074°02'0 0.0
2014-Oct-12 11:32N 40°40' W 074°02'0 0.1
2014-Oct-12 10:33N 40°40' W 074°02'0 0.0
2014-Oct-12 09:32N 40°40' W 074°02'0 0.0
2014-Oct-12 08:33N 40°40' W 074°02'0 0.0
2014-Oct-12 07:33N 40°40' W 074°02'0 0.0
2014-Oct-12 06:33N 40°40' W 074°02'0 0.0
2014-Oct-12 05:33N 40°40' W 074°02'0 0.1
2014-Oct-12 04:33N 40°40' W 074°02'0 0.1
2014-Oct-12 03:33N 40°40' W 074°02'0 0.0
2014-Oct-12 02:33N 40°40' W 074°02'0 0.1
2014-Oct-12 01:33N 40°40' W 074°02'0 0.0
2014-Oct-12 00:33N 40°40' W 074°02'0 0.1
2014-Oct-11 23:33N 40°40' W 074°02'0 0.1
2014-Oct-11 22:33N 40°40' W 074°02'0 0.0
2014-Oct-11 21:33N 40°40' W 074°02'0 0.0
2014-Oct-11 20:33N 40°40' W 074°02'0 0.0
2014-Oct-11 19:33N 40°40' W 074°02'0 0.0
2014-Oct-11 18:33N 40°40' W 074°02'0 0.0
2014-Oct-11 17:33N 40°40' W 074°02'0 0.1
2014-Oct-11 16:33N 40°40' W 074°02'0 0.1
2014-Oct-11 15:33N 40°40' W 074°02'0 0.0
2014-Oct-11 14:33N 40°40' W 074°02'1 0.7
2014-Oct-11 13:33N 40°41' W 074°01'7 6.2
2014-Oct-11 12:27N 40°47' W 073°56'23 8.0
2014-Oct-11 09:33N 40°58' W 073°30'9 8.8
2014-Oct-11 08:33N 41°01' W 073°19'9 9.2
2014-Oct-11 07:33N 41°02' W 073°07'10 9.5
2014-Oct-11 06:33N 41°04' W 072°54'10 9.7
2014-Oct-11 05:33N 41°07' W 072°42'1010.2
2014-Oct-11 04:33N 41°09' W 072°29'1111.4
2014-Oct-11 03:33N 41°12' W 072°14'1211.6
2014-Oct-11 02:33N 41°14' W 071°59'1110.7
2014-Oct-11 01:33N 41°16' W 071°45'1010.1
2014-Oct-11 00:33N 41°18' W 071°32'8 8.3
2014-Oct-10 23:33N 41°24' W 071°24'9 8.8
2014-Oct-10 22:33N 41°32' W 071°20'9 9.2
2014-Oct-10 21:33N 41°41' W 071°19'6 6.3
2014-Oct-10 20:33N 41°47' W 071°22'0 0.0
2014-Oct-10 19:33N 41°47' W 071°22'0 0.0
2014-Oct-10 18:33N 41°47' W 071°22'0 0.0
2014-Oct-10 17:33N 41°47' W 071°22'0 0.0
2014-Oct-10 16:32N 41°47' W 071°22'0 0.0
2014-Oct-10 15:33N 41°47' W 071°22'0 0.0
2014-Oct-10 14:33N 41°47' W 071°22'0 0.0
2014-Oct-10 13:24N 41°47' W 071°22'0 0.0
2014-Oct-10 12:33N 41°47' W 071°22'0 0.0
2014-Oct-10 11:33N 41°47' W 071°22'0 0.0
2014-Oct-10 10:33N 41°47' W 071°22'  

Dump ship's entire track history